| time (UTC) | temp C | wind direction | speed KPH | gust KPH | rain 1hr cm | rain 24hr cm | rain mn cm | humidity % | barometer mb |
| 20260508033145 | 10 | 129 | 1.6 | 4.8 | 0.00 | 0.00 | 0.00 | 79 | 1016.6 |
| 20260508032145 | 10 | 117 | 0.0 | 3.2 | 0.00 | 0.00 | 0.00 | 79 | 1016.5 |
| 20260508030142 | 10 | 110 | 0.0 | 1.6 | 0.00 | 0.00 | 0.00 | 78 | 1016.5 |
| 20260508025142 | 10 | 104 | 0.0 | 4.8 | 0.00 | 0.00 | 0.00 | 78 | 1016.4 |
| 20260508024143 | 10 | 111 | 0.0 | 3.2 | 0.00 | 0.00 | 0.00 | 78 | 1016.5 |
| 20260508023142 | 10 | 139 | 1.6 | 4.8 | 0.00 | 0.00 | 0.00 | 78 | 1016.6 |
| 20260508022143 | 10 | 108 | 1.6 | 3.2 | 0.00 | 0.00 | 0.00 | 77 | 1016.5 |
| 20260508015141 | 10 | 145 | 1.6 | 6.4 | 0.00 | 0.00 | 0.00 | 76 | 1016.6 |
| 20260508014140 | 10 | 208 | 1.6 | 6.4 | 0.00 | 0.00 | 0.00 | 77 | 1016.6 |
| 20260508013140 | 10 | 147 | 1.6 | 3.2 | 0.00 | 0.00 | 0.00 | 78 | 1016.5 |
| 20260508011140 | 10 | 238 | 0.0 | 1.6 | 0.00 | 0.00 | 0.00 | 78 | 1016.6 |
| 20260508005141 | 10 | 149 | 0.0 | 3.2 | 0.00 | 0.00 | 0.00 | 77 | 1016.5 |
| 20260508004140 | 10 | 240 | 0.0 | 1.6 | 0.00 | 0.00 | 0.00 | 79 | 1016.4 |
| 20260508003138 | 10 | 240 | 0.0 | 0.0 | 0.00 | 0.00 | 0.00 | 79 | 1016.5 |
| 20260508002138 | 10 | 240 | 0.0 | 0.0 | 0.00 | 0.00 | 0.00 | 79 | 1016.6 |
| 20260508001137 | 11 | 240 | 0.0 | 0.0 | 0.00 | 0.00 | 0.00 | 79 | 1016.7 |
| 20260508000137 | 11 | 240 | 0.0 | 1.6 | 0.00 | 0.00 | 0.00 | 79 | 1016.7 |
| 20260507235136 | 11 | 243 | 0.0 | 0.0 | 0.00 | 0.00 | 0.00 | 79 | 1016.8 |
| 20260507233135 | 11 | 243 | 0.0 | 1.6 | 0.00 | 0.00 | 0.00 | 77 | 1016.7 |
| 20260507232141 | 11 | 241 | 0.0 | 1.6 | 0.00 | 0.00 | 0.00 | 77 | 1016.7 |
| 20260507231137 | 11 | 240 | 0.0 | 1.6 | 0.00 | 0.00 | 0.00 | 78 | 1016.6 |
| 20260507230134 | 11 | 98 | 0.0 | 1.6 | 0.00 | 0.00 | 0.00 | 77 | 1016.7 |
| 20260507225135 | 11 | 86 | 0.0 | 3.2 | 0.00 | 0.00 | 0.00 | 77 | 1016.6 |
| 20260507224133 | 11 | 119 | 0.0 | 1.6 | 0.00 | 0.00 | 0.00 | 77 | 1016.6 |
| 20260507223137 | 11 | 98 | 0.0 | 3.2 | 0.00 | 0.00 | 0.00 | 77 | 1016.6 |
| 20260507221133 | 11 | 98 | 0.0 | 1.6 | 0.00 | 0.00 | 0.00 | 79 | 1016.7 |
| 20260507220134 | 11 | 129 | 0.0 | 1.6 | 0.00 | 0.00 | 0.00 | 80 | 1016.7 |
| 20260507215134 | 11 | 129 | 0.0 | 0.0 | 0.00 | 0.00 | 0.00 | 80 | 1016.6 |
| 20260507213135 | 11 | 129 | 0.0 | 0.0 | 0.00 | 0.00 | 0.00 | 79 | 1016.6 |
| 20260507212133 | 11 | 129 | 0.0 | 0.0 | 0.00 | 0.00 | 0.00 | 79 | 1016.6 |
| 20260507211134 | 11 | 129 | 0.0 | 0.0 | 0.00 | 0.00 | 0.00 | 78 | 1016.5 |
| 20260507210135 | 11 | 129 | 0.0 | 1.6 | 0.00 | 0.00 | 0.00 | 78 | 1016.5 |
| 20260507205133 | 11 | 154 | 0.0 | 1.6 | 0.00 | 0.00 | 0.00 | 78 | 1016.4 |
| 20260507204134 | 12 | 145 | 0.0 | 3.2 | 0.00 | 0.00 | 0.00 | 77 | 1016.3 |
| 20260507200135 | 12 | 210 | 0.0 | 4.8 | 0.00 | 0.00 | 0.00 | 72 | 1015.9 |
| 20260507195133 | 12 | 165 | 1.6 | 6.4 | 0.00 | 0.00 | 0.00 | 71 | 1015.7 |
| 20260507193134 | 13 | 146 | 1.6 | 4.8 | 0.00 | 0.00 | 0.00 | 71 | 1015.4 |
| 20260507192134 | 13 | 281 | 1.6 | 8.0 | 0.00 | 0.00 | 0.00 | 71 | 1015.3 |
| 20260507183137 | 13 | 159 | 3.2 | 8.0 | 0.00 | 0.00 | 0.00 | 69 | 1015.3 |
| 20260507182137 | 13 | 193 | 3.2 | 9.7 | 0.00 | 0.00 | 0.00 | 69 | 1015.3 |
| 20260507181134 | 13 | 247 | 3.2 | 8.0 | 0.00 | 0.00 | 0.00 | 68 | 1015.3 |
| 20260507180135 | 13 | 247 | 3.2 | 8.0 | 0.00 | 0.00 | 0.00 | 66 | 1015.2 |
| 20260507175134 | 13 | 247 | 4.8 | 9.7 | 0.00 | 0.00 | 0.00 | 65 | 1015.1 |
| 20260507174134 | 14 | 214 | 4.8 | 9.7 | 0.00 | 0.00 | 0.00 | 63 | 1015.1 |
| 20260507173136 | 14 | 266 | 4.8 | 9.7 | 0.00 | 0.00 | 0.00 | 61 | 1015.1 |
| 20260507170134 | 15 | 212 | 3.2 | 6.4 | 0.00 | 0.00 | 0.00 | 57 | 1015.2 |
| 20260507165134 | 15 | 181 | 3.2 | 8.0 | 0.00 | 0.00 | 0.00 | 56 | 1015.2 |
| 20260507163134 | 15 | 210 | 1.6 | 6.4 | 0.00 | 0.00 | 0.00 | 53 | 1015.2 |
| 20260507162133 | 15 | 139 | 1.6 | 6.4 | 0.00 | 0.00 | 0.00 | 53 | 1015.2 |
| 20260507160133 | 15 | 221 | 3.2 | 6.4 | 0.00 | 0.00 | 0.00 | 51 | 1015.2 |
| 20260507155133 | 15 | 272 | 4.8 | 11.3 | 0.00 | 0.00 | 0.00 | 50 | 1015.3 |
| 20260507145132 | 16 | 143 | 3.2 | 9.7 | 0.00 | 0.00 | 0.00 | 48 | 1015.6 |
| 20260507144130 | 16 | 226 | 4.8 | 11.3 | 0.00 | 0.00 | 0.00 | 47 | 1015.7 |
| 20260507143130 | 16 | 207 | 4.8 | 8.0 | 0.00 | 0.00 | 0.00 | 46 | 1015.7 |
| 20260507142127 | 16 | 191 | 3.2 | 9.7 | 0.00 | 0.00 | 0.00 | 45 | 1015.8 |
| 20260507141129 | 16 | 125 | 1.6 | 4.8 | 0.00 | 0.00 | 0.00 | 45 | 1015.8 |
| 20260507140128 | 16 | 62 | 3.2 | 9.7 | 0.00 | 0.00 | 0.00 | 44 | 1015.9 |
| 20260507134128 | 17 | 209 | 4.8 | 14.5 | 0.00 | 0.00 | 0.00 | 43 | 1016.0 |
| 20260507133128 | 17 | 215 | 3.2 | 9.7 | 0.00 | 0.00 | 0.00 | 44 | 1015.9 |
| 20260507132127 | 17 | 53 | 3.2 | 11.3 | 0.00 | 0.00 | 0.00 | 43 | 1015.9 |
| 20260507131127 | 16 | 165 | 3.2 | 9.7 | 0.00 | 0.00 | 0.00 | 45 | 1016.1 |
| 20260507130128 | 16 | 141 | 3.2 | 11.3 | 0.00 | 0.00 | 0.00 | 45 | 1016.2 |
| 20260507124128 | 17 | 154 | 4.8 | 12.9 | 0.00 | 0.00 | 0.00 | 44 | 1016.2 |
| 20260507123128 | 17 | 84 | 3.2 | 11.3 | 0.00 | 0.00 | 0.00 | 45 | 1016.2 |
| 20260507122128 | 17 | 48 | 1.6 | 8.0 | 0.00 | 0.00 | 0.00 | 44 | 1016.2 |
| 20260507121129 | 17 | 123 | 4.8 | 12.9 | 0.00 | 0.00 | 0.00 | 46 | 1016.4 |
| 20260507120126 | 16 | 234 | 3.2 | 11.3 | 0.00 | 0.00 | 0.00 | 47 | 1016.5 |
| 20260507115126 | 16 | 121 | 1.6 | 6.4 | 0.00 | 0.00 | 0.00 | 52 | 1016.6 |
| 20260507113126 | 16 | 105 | 1.6 | 9.7 | 0.00 | 0.00 | 0.00 | 58 | 1016.5 |
| 20260507112127 | 15 | 34 | 3.2 | 9.7 | 0.00 | 0.00 | 0.00 | 59 | 1016.5 |
| 20260507111125 | 15 | 12 | 1.6 | 4.8 | 0.00 | 0.00 | 0.00 | 57 | 1016.6 |
| 20260507110126 | 14 | 105 | 1.6 | 6.4 | 0.00 | 0.00 | 0.00 | 60 | 1017.0 |
| 20260507104124 | 13 | 229 | 3.2 | 11.3 | 0.00 | 0.00 | 0.00 | 68 | 1017.2 |
| 20260507103122 | 12 | 139 | 3.2 | 9.7 | 0.00 | 0.00 | 0.00 | 69 | 1017.2 |
| 20260507102122 | 12 | 245 | 3.2 | 9.7 | 0.00 | 0.00 | 0.00 | 70 | 1017.3 |
| 20260507101121 | 12 | 178 | 3.2 | 9.7 | 0.00 | 0.00 | 0.00 | 70 | 1017.2 |
| 20260507100120 | 12 | 158 | 1.6 | 8.0 | 0.00 | 0.00 | 0.00 | 71 | 1017.3 |
| 20260507095121 | 12 | 174 | 1.6 | 4.8 | 0.00 | 0.00 | 0.00 | 72 | 1017.2 |
| 20260507094115 | 11 | 166 | 1.6 | 4.8 | 0.00 | 0.00 | 0.00 | 74 | 1017.2 |
| 20260507093116 | 11 | 119 | 1.6 | 4.8 | 0.00 | 0.00 | 0.00 | 74 | 1017.2 |
| 20260507091115 | 10 | 108 | 1.6 | 4.8 | 0.00 | 0.00 | 0.00 | 77 | 1017.3 |
| 20260507090115 | 10 | 55 | 1.6 | 6.4 | 0.00 | 0.00 | 0.00 | 77 | 1017.2 |
| 20260507085114 | 10 | 55 | 1.6 | 6.4 | 0.00 | 0.00 | 0.00 | 78 | 1017.2 |
| 20260507083113 | 10 | 108 | 0.0 | 3.2 | 0.00 | 0.00 | 0.00 | 80 | 1017.2 |
| 20260507082111 | 9 | 172 | 0.0 | 3.2 | 0.00 | 0.00 | 0.00 | 81 | 1017.2 |
| 20260507081111 | 9 | 160 | 0.0 | 3.2 | 0.00 | 0.00 | 0.00 | 82 | 1017.2 |
| 20260507080109 | 8 | 127 | 1.6 | 8.0 | 0.00 | 0.00 | 0.00 | 84 | 1017.3 |
| 20260507075109 | 8 | 53 | 1.6 | 4.8 | 0.00 | 0.00 | 0.00 | 84 | 1017.2 |
| 20260507074111 | 8 | 58 | 1.6 | 6.4 | 0.00 | 0.00 | 0.00 | 85 | 1017.1 |
| 20260507073109 | 8 | 16 | 1.6 | 6.4 | 0.00 | 0.00 | 0.00 | 85 | 1017.2 |
| 20260507071111 | 7 | 55 | 1.6 | 6.4 | 0.00 | 0.00 | 0.00 | 87 | 1017.1 |
| 20260507070109 | 7 | 38 | 1.6 | 4.8 | 0.00 | 0.00 | 0.00 | 87 | 1017.0 |
| 20260507065110 | 7 | 41 | 0.0 | 4.8 | 0.00 | 0.00 | 0.00 | 88 | 1017.0 |
| 20260507064109 | 6 | 13 | 1.6 | 8.0 | 0.00 | 0.00 | 0.00 | 88 | 1017.0 |
| 20260507063109 | 6 | 56 | 1.6 | 6.4 | 0.00 | 0.00 | 0.00 | 88 | 1016.9 |
| 20260507062111 | 6 | 45 | 1.6 | 6.4 | 0.00 | 0.00 | 0.00 | 88 | 1017.0 |
| 20260507061109 | 6 | 8 | 1.6 | 3.2 | 0.00 | 0.00 | 0.00 | 89 | 1017.0 |
| 20260507055109 | 5 | 47 | 1.6 | 4.8 | 0.00 | 0.00 | 0.00 | 89 | 1016.9 |
| 20260507054109 | 5 | 31 | 1.6 | 4.8 | 0.00 | 0.00 | 0.00 | 89 | 1016.8 |
| 20260507052104 | 5 | 24 | 0.0 | 4.8 | 0.00 | 0.00 | 0.00 | 90 | 1016.7 |
| 20260507051103 | 4 | 37 | 0.0 | 3.2 | 0.00 | 0.00 | 0.00 | 90 | 1016.7 |
| 20260507045059 | 4 | 5 | 0.0 | 1.6 | 0.00 | 0.00 | 0.00 | 90 | 1016.8 |
| 20260507043059 | 3 | 27 | 0.0 | 1.6 | 0.00 | 0.00 | 0.00 | 90 | 1016.8 |
| 20260507042058 | 3 | 27 | 0.0 | 0.0 | 0.00 | 0.00 | 0.00 | 90 | 1016.7 |
| 20260507040057 | 4 | 29 | 0.0 | 3.2 | 0.00 | 0.00 | 0.00 | 89 | 1016.6 |
| 20260507034057 | 4 | 58 | 0.0 | 3.2 | 0.00 | 0.00 | 0.00 | 89 | 1016.6 |